EW6851 Weather Reports


Display with metric or nautical units.
time (UTC)temp
F
wind
direction
speed
MPH
gust
MPH
rain 1hr
in
rain 24hr
in
rain mn
in
humidity
%
barometer
mb
20260904142645 89 242 3.0 8.0 0.00 0.00 0.00 63 1016.9
20260904142148 89 273 4.0 9.0 0.00 0.00 0.00 63 1016.9
20260904141645 89 246 2.0 10.0 0.00 0.00 0.00 62 1016.9
20260904141142 89 297 8.0 9.0 0.00 0.00 0.00 63 1016.8
20260904140645 88 296 6.0 10.0 0.00 0.00 0.00 62 1016.8
20260904140142 88 276 8.0 11.0 0.00 0.00 0.00 63 1016.8
20260904135642 88 262 6.0 10.0 0.00 0.00 0.00 64 1016.9
20260904135148 89 283 8.0 10.0 0.00 0.00 0.00 64 1016.8
20260904134642 89 294 4.0 9.0 0.00 0.00 0.00 63 1016.9
20260904134142 88 315 3.0 9.0 0.00 0.00 0.00 62 1017.0
20260904133642 88 295 1.0 8.0 0.00 0.00 0.00 62 1017.0
20260904133142 88 313 6.0 9.0 0.00 0.00 0.00 63 1017.0
20260904132645 88 302 8.0 10.0 0.00 0.00 0.00 63 1017.1
20260904132142 88 12 6.0 9.0 0.00 0.00 0.00 63 1017.1
20260904131643 88 292 0.0 10.0 0.00 0.00 0.00 62 1017.1
20260904131142 88 309 1.0 7.0 0.00 0.00 0.00 63 1017.1
20260904130642 88 5 4.0 10.0 0.00 0.00 0.00 64 1017.1
20260904130142 88 292 5.0 9.0 0.00 0.00 0.00 62 1017.1
20260904125642 89 295 8.0 10.0 0.00 0.00 0.00 64 1017.1
20260904125145 88 213 3.0 9.0 0.00 0.00 0.00 65 1017.1
20260904124645 88 304 6.0 9.0 0.00 0.00 0.00 65 1017.2
20260904124142 88 294 6.0 10.0 0.00 0.00 0.00 66 1017.2
20260904123648 88 249 6.0 12.0 0.00 0.00 0.00 65 1017.2
20260904123142 88 300 8.0 11.0 0.00 0.00 0.00 65 1017.3
20260904122645 88 263 4.0 11.0 0.00 0.00 0.00 66 1017.3
20260904122148 88 279 9.0 10.0 0.00 0.00 0.00 66 1017.4
20260904121648 88 323 5.0 11.0 0.00 0.00 0.00 65 1017.4
20260904121142 88 309 4.0 12.0 0.00 0.00 0.00 66 1017.3
20260904120645 88 304 8.0 10.0 0.00 0.00 0.00 66 1017.4
20260904120145 88 308 5.0 13.0 0.00 0.00 0.00 65 1017.5
20260904115645 88 302 7.0 11.0 0.00 0.00 0.00 65 1017.4
20260904115142 88 306 7.0 12.0 0.00 0.00 0.00 64 1017.4
20260904114645 88 244 5.0 10.0 0.00 0.00 0.00 65 1017.5
20260904114148 88 267 5.0 11.0 0.00 0.00 0.00 63 1017.4
20260904113642 88 349 8.0 11.0 0.00 0.00 0.00 65 1017.4
20260904113142 88 344 3.0 11.0 0.00 0.00 0.00 65 1017.4
20260904112645 88 348 6.0 9.0 0.00 0.00 0.00 65 1017.4
20260904112142 88 347 3.0 9.0 0.00 0.00 0.00 65 1017.4
20260904111642 88 284 3.0 11.0 0.00 0.00 0.00 65 1017.4
20260904111148 87 300 6.0 10.0 0.00 0.00 0.00 67 1017.5
20260904110645 87 49 3.0 9.0 0.00 0.00 0.00 65 1017.5
20260904110145 87 328 7.0 10.0 0.00 0.00 0.00 66 1017.5
20260904105642 87 275 4.0 10.0 0.00 0.00 0.00 66 1017.5
20260904105142 87 287 7.0 12.0 0.00 0.00 0.00 66 1017.5
20260904104642 87 247 3.0 10.0 0.00 0.00 0.00 67 1017.5
20260904104142 87 300 7.0 12.0 0.00 0.00 0.00 66 1017.5
20260904103649 87 28 1.0 9.0 0.00 0.00 0.00 66 1017.4
20260904103142 87 274 7.0 12.0 0.00 0.00 0.00 66 1017.6
20260904102645 87 38 5.0 15.0 0.00 0.00 0.00 67 1017.5
20260904102145 87 294 15.0 15.0 0.00 0.00 0.00 66 1017.6
20260904101642 87 324 3.0 10.0 0.00 0.00 0.00 67 1017.6
20260904101148 87 279 7.0 9.0 0.00 0.00 0.00 67 1017.6
20260904100645 86 292 3.0 11.0 0.00 0.00 0.00 67 1017.6
20260904100148 86 267 6.0 12.0 0.00 0.00 0.00 68 1017.6
20260904095642 86 327 9.0 11.0 0.00 0.00 0.00 68 1017.6
20260904095145 86 284 7.0 11.0 0.00 0.00 0.00 68 1017.7
20260904094642 86 301 6.0 9.0 0.00 0.00 0.00 68 1017.7
20260904094145 86 13 3.0 11.0 0.00 0.00 0.00 68 1017.7
20260904093645 86 286 2.0 12.0 0.00 0.00 0.00 68 1017.7
20260904093142 85 292 0.0 5.0 0.00 0.00 0.00 69 1017.5
20260904092642 85 324 5.0 9.0 0.00 0.00 0.00 70 1017.6
20260904092142 85 288 9.0 11.0 0.00 0.00 0.00 69 1017.6
20260904091645 85 233 3.0 11.0 0.00 0.00 0.00 68 1017.6
20260904091145 86 320 5.0 8.0 0.00 0.00 0.00 68 1017.6
20260904090642 86 290 5.0 8.0 0.00 0.00 0.00 68 1017.7
20260904090142 85 261 5.0 10.0 0.00 0.00 0.00 68 1017.6
20260904085645 85 282 10.0 11.0 0.00 0.00 0.00 68 1017.6
20260904085145 85 291 7.0 11.0 0.00 0.00 0.00 67 1017.7
20260904084643 85 317 4.0 10.0 0.00 0.00 0.00 67 1017.6
20260904084145 85 325 4.0 5.0 0.00 0.00 0.00 68 1017.6
20260904083642 85 317 4.0 8.0 0.00 0.00 0.00 68 1017.5
20260904083148 85 292 5.0 10.0 0.00 0.00 0.00 67 1017.5
20260904082642 86 309 3.0 7.0 0.00 0.00 0.00 67 1017.5
20260904082143 85 284 0.0 4.0 0.00 0.00 0.00 67 1017.4
20260904081645 85 261 0.0 9.0 0.00 0.00 0.00 67 1017.4
20260904081142 86 317 1.0 5.0 0.00 0.00 0.00 66 1017.4
20260904080642 85 294 2.0 6.0 0.00 0.00 0.00 66 1017.3
20260904080145 85 316 3.0 8.0 0.00 0.00 0.00 66 1017.2
20260904075643 85 308 0.0 8.0 0.00 0.00 0.00 67 1017.2
20260904075142 84 205 0.0 5.0 0.00 0.00 0.00 68 1017.1
20260904074649 84 223 5.0 7.0 0.00 0.00 0.00 68 1017.0
20260904074143 84 225 5.0 6.0 0.00 0.00 0.00 68 1017.0
20260904073645 84 247 6.0 7.0 0.00 0.00 0.00 68 1016.9
20260904073142 84 248 5.0 7.0 0.00 0.00 0.00 68 1016.9
20260904072645 83 267 1.0 5.0 0.00 0.00 0.00 69 1016.9
20260904072142 83 207 0.0 4.0 0.00 0.00 0.00 69 1016.8
20260904071645 83 169 2.0 4.0 0.00 0.00 0.00 69 1016.8
20260904071146 83 175 3.0 5.0 0.00 0.00 0.00 68 1016.8
20260904070649 83 180 3.0 5.0 0.00 0.00 0.00 68 1016.7
20260904070143 83 205 3.0 5.0 0.00 0.00 0.00 68 1016.7
20260904065643 83 207 3.0 5.0 0.00 0.00 0.00 68 1016.8
20260904065149 83 254 0.0 4.0 0.00 0.00 0.00 68 1016.9
20260904064646 83 175 0.0 4.0 0.00 0.00 0.00 68 1017.0
20260904064146 83 178 3.0 5.0 0.00 0.00 0.00 68 1016.9
20260904063646 82 180 2.0 3.0 0.00 0.00 0.00 69 1016.9
20260904063145 82 164 1.0 6.0 0.00 0.00 0.00 70 1016.7
20260904062646 82 130 2.0 7.0 0.00 0.00 0.00 70 1016.8
20260904062146 81 179 4.0 5.0 0.00 0.00 0.00 70 1016.7
20260904061643 81 223 5.0 6.0 0.00 0.00 0.00 71 1016.7
20260904061143 81 195 3.0 5.0 0.00 0.00 0.00 72 1016.8
20260904060643 81 176 5.0 6.0 0.00 0.00 0.00 73 1016.7
20260904060143 81 208 2.0 2.0 0.00 0.00 0.00 75 1016.7
20260904055643 80 169 2.0 4.0 0.00 0.00 0.00 75 1016.8
20260904055143 80 124 3.0 5.0 0.00 0.00 0.00 76 1016.9
20260904054643 79 167 1.0 5.0 0.00 0.00 0.00 77 1016.8
20260904054143 79 117 2.0 5.0 0.00 0.00 0.00 78 1016.7
20260904053643 79 131 2.0 5.0 0.00 0.00 0.00 79 1016.8
20260904053143 78 157 1.0 3.0 0.00 0.00 0.00 79 1016.8
20260904052643 78 126 0.0 3.0 0.00 0.00 0.00 79 1016.9
20260904052143 78 178 1.0 3.0 0.00 0.00 0.00 80 1016.8
20260904051646 78 178 1.0 2.0 0.00 0.00 0.00 80 1016.7
20260904051143 78 178 1.0 3.0 0.00 0.00 0.00 80 1016.7
20260904050643 78 180 2.0 6.0 0.00 0.00 0.00 80 1016.6
20260904050143 78 160 6.0 5.0 0.00 0.00 0.00 80 1016.5
20260904045646 78 181 2.0 3.0 0.00 0.00 0.00 80 1016.4
20260904045149 78 159 3.0 4.0 0.00 0.00 0.00 80 1016.4
20260904044643 78 130 1.0 3.0 0.00 0.00 0.00 80 1016.4
20260904044146 78 173 2.0 3.0 0.00 0.00 0.00 81 1016.3
20260904043643 78 159 0.0 4.0 0.00 0.00 0.00 81 1016.3
20260904043143 77 175 0.0 4.0 0.00 0.00 0.00 81 1016.2
20260904042649 78 169 3.0 5.0 0.00 0.00 0.00 81 1016.3
20260904042146 78 116 0.0 4.0 0.00 0.00 0.00 81 1016.3
20260904041646 78 163 1.0 6.0 0.00 0.00 0.00 81 1016.3
20260904041143 78 126 2.0 5.0 0.00 0.00 0.00 80 1016.3
20260904040646 78 112 5.0 6.0 0.00 0.00 0.00 80 1016.4
20260904040143 78 146 3.0 5.0 0.00 0.00 0.00 80 1016.3
20260904035643 78 149 4.0 6.0 0.00 0.00 0.00 80 1016.3
20260904035146 78 166 1.0 4.0 0.00 0.00 0.00 80 1016.3
20260904034649 78 150 0.0 6.0 0.00 0.00 0.00 80 1016.3
20260904034143 78 164 1.0 4.0 0.00 0.00 0.00 80 1016.2
20260904033643 78 169 2.0 5.0 0.00 0.00 0.00 80 1016.2
20260904033143 78 179 1.0 5.0 0.00 0.00 0.00 80 1016.1
20260904032643 78 134 0.0 3.0 0.00 0.00 0.00 80 1016.2
20260904032146 78 180 0.0 3.0 0.00 0.00 0.00 80 1016.2
20260904031646 78 188 2.0 4.0 0.00 0.00 0.00 80 1016.2
20260904031143 78 146 4.0 4.0 0.00 0.00 0.00 80 1016.2
20260904030646 78 151 1.0 6.0 0.00 0.00 0.00 80 1016.2
20260904030143 78 85 1.0 4.0 0.00 0.00 0.00 80 1016.2
20260904025649 78 137 0.0 4.0 0.00 0.00 0.00 80 1016.2
20260904025144 78 148 0.0 5.0 0.00 0.00 0.00 80 1016.2
20260904024643 78 164 3.0 5.0 0.00 0.00 0.00 80 1016.2
20260904024149 78 167 2.0 5.0 0.00 0.00 0.00 79 1016.2
20260904023643 78 173 2.0 5.0 0.00 0.00 0.00 79 1016.2
20260904023149 78 170 3.0 4.0 0.00 0.00 0.00 79 1016.2
20260904022643 78 181 3.0 4.0 0.00 0.00 0.00 79 1016.2
20260904022143 78 177 3.0 4.0 0.00 0.00 0.00 79 1016.2
20260904021643 78 171 0.0 5.0 0.00 0.00 0.00 79 1016.2
20260904021146 78 138 1.0 7.0 0.00 0.00 0.00 79 1016.3
20260904020646 78 144 3.0 5.0 0.00 0.00 0.00 79 1016.2
20260904020145 78 175 3.0 7.0 0.00 0.00 0.00 79 1016.2
20260904015645 78 124 3.0 5.0 0.00 0.00 0.00 79 1016.2
20260904015142 78 138 4.0 6.0 0.00 0.00 0.00 79 1016.2
20260904014645 78 123 1.0 7.0 0.00 0.00 0.00 79 1016.2
20260904014142 78 84 0.0 7.0 0.00 0.00 0.00 79 1016.2
20260904013645 78 207 1.0 6.0 0.00 0.00 0.00 79 1016.2
20260904013145 79 137 3.0 5.0 0.00 0.00 0.00 79 1016.2
20260904012651 79 251 1.0 5.0 0.00 0.00 0.00 80 1016.2
20260904012142 79 148 0.0 6.0 0.00 0.00 0.00 80 1016.2
20260904011642 79 174 2.0 4.0 0.00 0.00 0.00 79 1016.1
20260904011145 79 158 2.0 4.0 0.00 0.00 0.00 80 1016.1
20260904010648 79 160 1.0 4.0 0.00 0.00 0.00 79 1016.1
20260904010142 79 156 3.0 4.0 0.00 0.00 0.00 80 1016.0
20260904005645 79 165 1.0 5.0 0.00 0.00 0.00 80 1015.9
20260904005148 79 113 0.0 5.0 0.00 0.00 0.00 80 1015.8
20260904004645 79 161 2.0 5.0 0.00 0.00 0.00 80 1016.0
20260904004142 79 109 0.0 5.0 0.00 0.00 0.00 80 1016.0
20260904003642 79 156 2.0 6.0 0.00 0.00 0.00 80 1016.0
20260904003142 79 117 1.0 7.0 0.00 0.00 0.00 80 1016.0
20260904002642 79 163 0.0 6.0 0.00 0.00 0.00 79 1016.2
20260904002148 79 140 0.0 5.0 0.00 0.00 0.00 79 1016.1
20260904001648 79 186 0.0 7.0 0.00 0.00 0.00 79 1016.2
20260904001142 79 130 3.0 4.0 0.00 0.00 0.00 79 1016.2
20260904000645 80 96 0.0 3.0 0.00 0.00 0.00 78 1016.3
20260904000145 80 144 0.0 5.0 0.00 0.00 0.00 78 1016.3
20260903235642 80 142 3.0 3.0 0.00 0.00 0.00 78 1016.4
20260903235142 80 199 2.0 5.0 0.00 0.00 0.00 78 1016.4
20260903234642 80 115 0.0 0.0 0.00 0.00 0.00 77 1016.3
20260903234151 80 173 0.0 0.0 0.00 0.00 0.00 77 1016.4
20260903233642 80 146 0.0 0.0 0.00 0.00 0.00 77 1016.5
20260903233142 81 146 0.0 0.0 0.00 0.00 0.00 77 1016.5
20260903232646 81 146 0.0 0.0 0.00 0.00 0.00 77 1016.5
20260903232142 80 146 0.0 3.0 0.00 0.00 0.00 77 1016.5
20260903231642 80 169 1.0 4.0 0.00 0.00 0.00 77 1016.5
20260903231145 81 169 3.0 5.0 0.00 0.00 0.00 77 1016.5
20260903230645 81 173 3.0 5.0 0.00 0.00 0.00 76 1016.5
20260903230145 81 180 2.0 4.0 0.00 0.00 0.00 76 1016.6
20260903225645 81 196 1.0 4.0 0.00 0.00 0.00 76 1016.6
20260903225145 81 213 1.0 5.0 0.00 0.00 0.00 76 1016.5
20260903224643 81 236 3.0 5.0 0.00 0.00 0.00 76 1016.5
20260903224148 81 173 2.0 4.0 0.00 0.00 0.00 76 1016.5
20260903223642 82 158 2.0 4.0 0.00 0.00 0.00 75 1016.6
20260903223145 82 142 0.0 0.0 0.00 0.00 0.00 74 1016.5
20260903222645 82 246 0.0 0.0 0.00 0.00 0.00 74 1016.6
20260903222142 82 246 0.0 0.0 0.00 0.00 0.00 74 1016.5
20260903221645 82 246 0.0 3.0 0.00 0.00 0.00 74 1016.6
20260903221145 82 246 1.0 3.0 0.00 0.00 0.00 74 1016.5
20260903220648 83 246 0.0 3.0 0.00 0.00 0.00 74 1016.4
20260903220146 83 246 2.0 3.0 0.00 0.00 0.00 74 1016.4
20260903215645 83 246 0.0 0.0 0.00 0.00 0.00 73 1016.5
20260903215148 83 246 0.0 0.0 0.00 0.00 0.00 73 1016.6
20260903214642 83 309 0.0 4.0 0.00 0.00 0.00 73 1016.6
20260903214142 83 300 0.0 3.0 0.00 0.00 0.00 74 1016.6
20260903213645 83 300 0.0 4.0 0.00 0.00 0.00 74 1016.6
20260903213142 83 300 0.0 3.0 0.00 0.00 0.00 74 1016.6
20260903212642 83 256 2.0 3.0 0.00 0.00 0.00 74 1016.5
20260903212145 83 311 1.0 4.0 0.00 0.00 0.00 74 1016.6
20260903211648 83 307 0.0 2.0 0.00 0.00 0.00 74 1016.5
20260903211142 83 307 2.0 4.0 0.00 0.00 0.00 74 1016.6
20260903210648 83 302 3.0 4.0 0.00 0.00 0.00 74 1016.6
20260903210142 83 315 2.0 4.0 0.00 0.00 0.00 74 1016.5
20260903205642 83 307 4.0 5.0 0.00 0.00 0.00 74 1016.5
20260903205145 83 296 3.0 4.0 0.00 0.00 0.00 74 1016.5
20260903204642 83 285 0.0 3.0 0.00 0.00 0.00 74 1016.5
20260903204142 83 285 1.0 3.0 0.00 0.00 0.00 75 1016.5
20260903203642 83 294 0.0 2.0 0.00 0.00 0.00 75 1016.5
20260903203142 83 294 2.0 4.0 0.00 0.00 0.00 74 1016.5
20260903202645 83 302 1.0 4.0 0.00 0.00 0.00 74 1016.5
20260903202142 83 282 3.0 4.0 0.00 0.00 0.00 74 1016.5
20260903201642 83 311 4.0 4.0 0.00 0.00 0.00 74 1016.5
20260903201142 83 308 3.0 6.0 0.00 0.00 0.00 74 1016.5
20260903200642 83 333 3.0 4.0 0.00 0.00 0.00 74 1016.6
20260903200148 83 327 1.0 3.0 0.00 0.00 0.00 75 1016.6
20260903195651 83 273 2.0 6.0 0.00 0.00 0.00 75 1016.6
20260903195145 83 299 6.0 7.0 0.00 0.00 0.00 75 1016.6
20260903194645 83 299 2.0 5.0 0.00 0.00 0.00 75 1016.5
20260903194145 83 302 3.0 6.0 0.00 0.00 0.00 75 1016.5
20260903193645 83 317 5.0 5.0 0.00 0.00 0.00 74 1016.6
20260903193145 84 272 3.0 5.0 0.00 0.00 0.00 74 1016.5
20260903192642 84 315 3.0 5.0 0.00 0.00 0.00 74 1016.4
20260903192145 84 292 1.0 5.0 0.00 0.00 0.00 74 1016.3
20260903191642 84 287 2.0 6.0 0.00 0.00 0.00 74 1016.3
20260903191142 84 309 3.0 7.0 0.00 0.00 0.00 74 1016.3
20260903190642 84 269 5.0 7.0 0.00 0.00 0.00 74 1016.3
20260903190142 84 293 3.0 8.0 0.00 0.00 0.00 73 1016.3
20260903185651 84 272 5.0 8.0 0.00 0.00 0.00 73 1016.0
20260903185142 84 284 2.0 6.0 0.00 0.00 0.00 72 1016.0
20260903184642 84 248 3.0 8.0 0.00 0.00 0.00 72 1016.0
20260903184149 84 327 4.0 6.0 0.00 0.00 0.00 73 1016.0
20260903183642 84 287 4.0 6.0 0.00 0.00 0.00 73 1015.9
20260903183145 84 306 4.0 6.0 0.00 0.00 0.00 72 1015.8
20260903182645 84 275 3.0 5.0 0.00 0.00 0.00 72 1015.7
20260903182145 84 216 2.0 6.0 0.00 0.00 0.00 71 1015.7
20260903181645 84 313 3.0 3.0 0.00 0.00 0.00 70 1015.6
20260903181142 84 298 0.0 3.0 0.00 0.00 0.00 70 1015.5
20260903180642 84 295 3.0 5.0 0.00 0.00 0.00 70 1015.4
20260903180142 84 301 3.0 5.0 0.00 0.00 0.00 69 1015.4
20260903175645 84 257 3.0 4.0 0.00 0.00 0.00 69 1015.4
20260903175151 84 277 3.0 6.0 0.00 0.00 0.00 69 1015.3
20260903174645 84 269 0.0 4.0 0.00 0.00 0.00 69 1015.3
20260903174142 84 298 1.0 6.0 0.00 0.00 0.00 69 1015.2
20260903173642 85 272 3.0 8.0 0.00 0.00 0.00 68 1015.2
20260903173145 85 307 4.0 8.0 0.00 0.00 0.00 67 1015.1
20260903172642 85 300 4.0 6.0 0.00 0.00 0.00 67 1015.2
20260903172145 85 338 2.0 6.0 0.00 0.00 0.00 67 1015.2
20260903171645 85 334 2.0 8.0 0.00 0.00 0.00 67 1015.1
20260903171142 86 261 6.0 8.0 0.00 0.00 0.00 67 1015.1
20260903170648 86 306 7.0 9.0 0.00 0.00 0.00 66 1015.0
20260903170145 86 338 1.0 8.0 0.00 0.00 0.00 65 1015.0
20260903165642 86 315 5.0 6.0 0.00 0.00 0.00 65 1015.0
20260903165142 86 325 4.0 9.0 0.00 0.00 0.00 67 1015.0
20260903164648 87 270 5.0 7.0 0.00 0.00 0.00 67 1014.9
20260903164142 87 273 4.0 8.0 0.00 0.00 0.00 66 1014.9
20260903163651 87 297 5.0 5.0 0.00 0.00 0.00 68 1014.9
20260903163142 87 246 1.0 8.0 0.00 0.00 0.00 67 1014.9
20260903162642 87 305 5.0 8.0 0.00 0.00 0.00 66 1015.0
20260903162145 87 326 4.0 6.0 0.00 0.00 0.00 66 1015.0
20260903161645 87 253 1.0 7.0 0.00 0.00 0.00 66 1015.0
20260903161145 87 293 4.0 8.0 0.00 0.00 0.00 68 1015.0
20260903160645 87 277 2.0 8.0 0.00 0.00 0.00 67 1015.1
20260903160145 87 292 4.0 8.0 0.00 0.00 0.00 68 1015.0
20260903155642 87 5 7.0 10.0 0.00 0.00 0.00 68 1015.1
20260903155142 87 247 8.0 10.0 0.00 0.00 0.00 68 1015.1
20260903154645 87 327 3.0 7.0 0.00 0.00 0.00 67 1015.1
20260903154148 87 200 2.0 8.0 0.00 0.00 0.00 67 1015.1
20260903153646 87 294 9.0 9.0 0.00 0.00 0.00 67 1015.2
20260903153145 88 256 4.0 7.0 0.00 0.00 0.00 67 1015.2
20260903152645 87 270 2.0 8.0 0.00 0.00 0.00 68 1015.2
20260903152145 87 262 0.0 6.0 0.00 0.00 0.00 69 1015.1
20260903151642 87 325 1.0 7.0 0.00 0.00 0.00 68 1015.1
20260903151145 87 36 3.0 6.0 0.00 0.00 0.00 67 1015.0
20260903150645 88 271 3.0 7.0 0.00 0.00 0.00 67 1015.0
20260903150145 87 307 5.0 5.0 0.00 0.00 0.00 68 1015.0
20260903145651 87 25 3.0 11.0 0.00 0.00 0.00 68 1015.1
20260903145145 87 287 8.0 8.0 0.00 0.00 0.00 69 1015.2
20260903144642 87 16 4.0 9.0 0.00 0.00 0.00 67 1015.2
20260903144142 88 18 5.0 11.0 0.00 0.00 0.00 66 1015.2
20260903143642 88 334 7.0 10.0 0.00 0.00 0.00 67 1015.2
20260903143142 88 291 0.0 6.0 0.00 0.00 0.00 68 1015.3